sat.trackr.live / text

‹ back to catalog

DIRECTV 8

NORAD 28659 · 2005-019A

PAYLOAD ACTIVE UNKNOWN

§ Identity

Operator
Country
US
Launch date
2005-05-22
Launch site
TYMSC
Launch vehicle
Mass (kg)
RCS (m²)
16.67

Purposes: comms

External: N2YO · Heavens-Above · Gunter

§ Orbital elements

Epoch: 2026-09-19T21:32:10.055904Z

Period
1,436.08 min
Inclination
0.0139°
Eccentricity
0.0002975
Mean motion
1.00272820 rev/d
Perigee alt
35,773.8 km
Apogee alt
35,798.8 km
Semi-major
42,164.4 km
B*
0.0000e+0
RAAN
118.9626°
Arg perigee
53.0640°
Mean anomaly
30.7706°
Rev number
7,802

§ Raw data

DIRECTV 81 28659U 05019A   26262.89733861 -.00000003  00000+0  00000+0 0  99902 28659   0.0139 118.9626 0002975  53.0640  30.7706  1.00272820 78021

JSON: /api/v1/satellites/28659 · /tle

For live sub-satellite position, see the globe view (requires WebGL).

§ Visibility from observer

Set your observer location to see the next 7 days of passes ≥ 10°. The values pass through the URL so the page stays shareable.

No JS? Fill the form by hand. The geolocation button needs JavaScript.